309P/LINEAR (2015)

Japanese version
Home page
Updated on June 11, 2016

---------------------------------------------------------------------

* Profile

Designation 309P/2014 Q4
Recovery Date August 22, 2014
Magnitude 19.9 mag
Recoverer K. Sarneczky (Szeged, Hungary)

* Pictures

* Orbital Elements

Epoch 2015 Feb. 27.0 TT = JDT 2457080.5
T 2015 Feb. 16.51359 TT                                 MPCW
q   1.7404079            (2000.0)            P               Q
n   0.10535549     Peri.   50.97430     +0.47136625     -0.87990558
a   4.4398122      Node    11.37094     +0.68593516     +0.32312127
e   0.6079997      Incl.   17.66648     +0.55435262     +0.34836591
P   9.36
From 347 observations 2005 Aug. 31-2015 Mar. 23, mean residual 0".5.

* Magnitudes Graph

        m1 = 14.0 + 5 log d + 10.0 log r(t - 60)

---------------------------------------------------------------------

The orbital elements are published on M.P.E.C. 2015-K139.
The magnitudes graphs are made with Comet for Windows.

---------------------------------------------------------------------

Copyright(C) Seiichi Yoshida (comet@aerith.net). All rights reserved.